Hourly Weather Kozliv

Today, 22 October, Thursday

Time Temperature Precipitation Wind Pressure Humidity
00:00 +9°C° 0 mm 2 mps 755 mmHg 74%
01:00 +9°C° 0 mm 2 mps 755 mmHg 74%
02:00 +10°C° 0 mm 1 mps 755 mmHg 73%
03:00 +10°C° 0 mm 1 mps 755 mmHg 71%
04:00 +10°C° 0 mm 1 mps 755 mmHg 70%
05:00 +10°C° 0 mm 1 mps 755 mmHg 68%
06:00 +11°C° 0 mm 1 mps 755 mmHg 67%
07:00 +10°C° 0 mm 2 mps 755 mmHg 67%
08:00 +10°C° 0 mm 2 mps 755 mmHg 66%
09:00 +12°C° 0 mm 2 mps 755 mmHg 62%
10:00 +12°C° 0 mm 3 mps 755 mmHg 58%
11:00 +13°C° 0 mm 3 mps 755 mmHg 54%
12:00 +14°C° 0 mm 4 mps 755 mmHg 50%
13:00 +17°C° 0 mm 4 mps 755 mmHg 45%
14:00 +17°C° 0 mm 5 mps 755 mmHg 41%
15:00 +17°C° 0 mm 4 mps 754 mmHg 45%
16:00 +15°C° 0 mm 4 mps 754 mmHg 49%
17:00 +14°C° 0 mm 3 mps 754 mmHg 53%
18:00 +14°C° 0 mm 4 mps 754 mmHg 56%
19:00 +13°C° 0 mm 4 mps 754 mmHg 58%
20:00 +13°C° 0 mm 4 mps 754 mmHg 60%
21:00 +13°C° 0 mm 4 mps 754 mmHg 63%
22:00 +13°C° 0 mm 4 mps 754 mmHg 65%
23:00 +13°C° 0 mm 4 mps 754 mmHg 68%

Tomorrow, 23 October, Friday

Time Temperature Precipitation Wind Pressure Humidity
00:00 +13°C° 0 mm 3 mps 755 mmHg 71%
01:00 +12°C° 0 mm 3 mps 755 mmHg 74%
02:00 +13°C° 0 mm 2 mps 755 mmHg 77%
03:00 +13°C° 0 mm 2 mps 755 mmHg 78%
04:00 +12°C° 0 mm 2 mps 754 mmHg 80%
05:00 +12°C° 0 mm 2 mps 754 mmHg 81%
06:00 +12°C° 0 mm 2 mps 754 mmHg 80%
07:00 +13°C° 0 mm 2 mps 754 mmHg 78%
08:00 +13°C° 0 mm 2 mps 754 mmHg 77%
09:00 +14°C° 0 mm 2 mps 754 mmHg 71%
10:00 +16°C° 0 mm 3 mps 754 mmHg 65%
11:00 +17°C° 0 mm 3 mps 753 mmHg 60%
12:00 +18°C° 0 mm 3 mps 753 mmHg 57%
13:00 +18°C° 0 mm 3 mps 752 mmHg 54%
14:00 +19°C° 0 mm 3 mps 752 mmHg 51%
15:00 +18°C° 0 mm 3 mps 752 mmHg 54%
16:00 +17°C° 0 mm 2 mps 751 mmHg 58%
17:00 +16°C° 0 mm 2 mps 751 mmHg 61%
18:00 +16°C° 0 mm 2 mps 751 mmHg 61%
19:00 +15°C° 0 mm 2 mps 751 mmHg 62%
20:00 +15°C° 0 mm 2 mps 751 mmHg 62%
21:00 +15°C° 0 mm 2 mps 751 mmHg 62%
22:00 +15°C° 0 mm 2 mps 751 mmHg 62%
23:00 +15°C° 0 mm 2 mps 751 mmHg 62%

Day after tomorrow, 24 October, Saturday

Time Temperature Precipitation Wind Pressure Humidity
00:00 +14°C° 0 mm 2 mps 751 mmHg 64%
01:00 +14°C° 0 mm 2 mps 751 mmHg 66%
02:00 +14°C° 0 mm 2 mps 751 mmHg 68%
03:00 +13°C° 0 mm 2 mps 751 mmHg 71%
04:00 +13°C° 0 mm 1 mps 751 mmHg 74%
05:00 +13°C° 0 mm 1 mps 750 mmHg 77%
06:00 +13°C° 0 mm 1 mps 751 mmHg 77%
07:00 +13°C° 0 mm 1 mps 751 mmHg 77%
08:00 +13°C° 0 mm 1 mps 751 mmHg 77%
09:00 +14°C° 0 mm 1 mps 751 mmHg 76%
10:00 +14°C° 0 mm 1 mps 751 mmHg 76%
11:00 +13°C° 0 mm 0 mps 751 mmHg 75%
12:00 +14°C° 0 mm 0 mps 751 mmHg 72%
13:00 +16°C° 0 mm 1 mps 750 mmHg 69%
14:00 +16°C° 0 mm 1 mps 750 mmHg 66%
15:00 +16°C° 0 mm 1 mps 750 mmHg 69%
16:00 +15°C° 0 mm 1 mps 750 mmHg 72%
17:00 +14°C° 0 mm 1 mps 750 mmHg 75%
18:00 +14°C° 0 mm 1 mps 750 mmHg 76%
19:00 +14°C° 0 mm 2 mps 750 mmHg 77%
20:00 +14°C° 0 mm 2 mps 750 mmHg 78%
21:00 +14°C° 0 mm 2 mps 750 mmHg 79%
22:00 +14°C° 0 mm 2 mps 750 mmHg 80%
23:00 +14°C° 0 mm 2 mps 750 mmHg 80%

, 25 October, Sunday

Time Temperature Precipitation Wind Pressure Humidity
00:00 +13°C° 0 mm 2 mps 750 mmHg 82%
01:00 +13°C° 0 mm 2 mps 750 mmHg 84%
02:00 +11°C° 0 mm 3 mps 751 mmHg 85%
03:00 +11°C° 0 mm 3 mps 751 mmHg 88%
04:00 +11°C° 0 mm 3 mps 752 mmHg 90%
05:00 +11°C° 0 mm 3 mps 752 mmHg 92%
06:00 +11°C° 0 mm 3 mps 752 mmHg 89%
07:00 +12°C° 0 mm 4 mps 753 mmHg 85%
08:00 +12°C° 0 mm 4 mps 753 mmHg 82%
09:00 +13°C° 0 mm 4 mps 753 mmHg 77%
10:00 +14°C° 0 mm 4 mps 754 mmHg 72%
11:00 +14°C° 0 mm 3 mps 754 mmHg 67%
12:00 +16°C° 0 mm 3 mps 755 mmHg 66%
13:00 +15°C° 0 mm 4 mps 755 mmHg 65%
14:00 +15°C° 0 mm 4 mps 755 mmHg 64%
15:00 +14°C° 0 mm 3 mps 755 mmHg 70%
16:00 +13°C° 0 mm 3 mps 755 mmHg 75%
17:00 +12°C° 0 mm 3 mps 755 mmHg 81%
18:00 +12°C° 0 mm 2 mps 756 mmHg 83%
19:00 +10°C° 0 mm 2 mps 756 mmHg 86%
20:00 +9°C° 0 mm 2 mps 757 mmHg 88%
21:00 +9°C° 0 mm 2 mps 757 mmHg 89%
22:00 +9°C° 0 mm 2 mps 757 mmHg 90%
23:00 +8°C° 0 mm 2 mps 757 mmHg 91%

25 October, Sunday

Time Temperature Precipitation Wind Pressure Humidity
00:00 +13°C° 0 mm 2 mps 750 mmHg 82%
01:00 +13°C° 0 mm 2 mps 750 mmHg 84%
02:00 +11°C° 0 mm 3 mps 751 mmHg 85%
03:00 +11°C° 0 mm 3 mps 751 mmHg 88%
04:00 +11°C° 0 mm 3 mps 752 mmHg 90%
05:00 +11°C° 0 mm 3 mps 752 mmHg 92%
06:00 +11°C° 0 mm 3 mps 752 mmHg 89%
07:00 +12°C° 0 mm 4 mps 753 mmHg 85%
08:00 +12°C° 0 mm 4 mps 753 mmHg 82%
09:00 +13°C° 0 mm 4 mps 753 mmHg 77%
10:00 +14°C° 0 mm 4 mps 754 mmHg 72%
11:00 +14°C° 0 mm 3 mps 754 mmHg 67%
12:00 +16°C° 0 mm 3 mps 755 mmHg 66%
13:00 +15°C° 0 mm 4 mps 755 mmHg 65%
14:00 +15°C° 0 mm 4 mps 755 mmHg 64%
15:00 +14°C° 0 mm 3 mps 755 mmHg 70%
16:00 +13°C° 0 mm 3 mps 755 mmHg 75%
17:00 +12°C° 0 mm 3 mps 755 mmHg 81%
18:00 +12°C° 0 mm 2 mps 756 mmHg 83%
19:00 +10°C° 0 mm 2 mps 756 mmHg 86%
20:00 +9°C° 0 mm 2 mps 757 mmHg 88%
21:00 +9°C° 0 mm 2 mps 757 mmHg 89%
22:00 +9°C° 0 mm 2 mps 757 mmHg 90%
23:00 +8°C° 0 mm 2 mps 757 mmHg 91%

26 October, Monday

Time Temperature Precipitation Wind Pressure Humidity
00:00 +8°C° 0 mm 2 mps 757 mmHg 91%
01:00 +8°C° 0 mm 2 mps 757 mmHg 92%
02:00 +8°C° 0 mm 2 mps 757 mmHg 92%
03:00 +7°C° 0 mm 2 mps 757 mmHg 92%
04:00 +7°C° 0 mm 2 mps 758 mmHg 92%
05:00 +7°C° 0 mm 2 mps 758 mmHg 93%
06:00 +7°C° 0 mm 2 mps 758 mmHg 91%
07:00 +8°C° 0 mm 2 mps 758 mmHg 89%
08:00 +8°C° 0 mm 3 mps 758 mmHg 87%
09:00 +9°C° 0 mm 3 mps 758 mmHg 80%
10:00 +11°C° 0 mm 3 mps 758 mmHg 74%
11:00 +13°C° 0 mm 4 mps 758 mmHg 67%
12:00 +13°C° 0 mm 4 mps 758 mmHg 65%
13:00 +14°C° 0 mm 4 mps 757 mmHg 63%
14:00 +14°C° 0 mm 4 mps 757 mmHg 60%
15:00 +14°C° 0 mm 4 mps 757 mmHg 64%
16:00 +13°C° 0 mm 3 mps 757 mmHg 67%
17:00 +12°C° 0 mm 3 mps 756 mmHg 71%
18:00 +11°C° 0 mm 3 mps 756 mmHg 71%
19:00 +11°C° 0 mm 4 mps 757 mmHg 72%
20:00 +11°C° 0 mm 4 mps 757 mmHg 72%
21:00 +11°C° 0 mm 4 mps 757 mmHg 70%
22:00 +10°C° 0 mm 5 mps 757 mmHg 69%
23:00 +10°C° 0 mm 5 mps 757 mmHg 67%

27 October, Tuesday

Time Temperature Precipitation Wind Pressure Humidity
00:00 +10°C° 0 mm 5 mps 757 mmHg 66%
01:00 +10°C° 0 mm 5 mps 757 mmHg 66%
02:00 +10°C° 0 mm 5 mps 756 mmHg 65%
03:00 +10°C° 0 mm 5 mps 756 mmHg 65%
04:00 +10°C° 0 mm 5 mps 756 mmHg 64%
05:00 +10°C° 0 mm 5 mps 756 mmHg 64%
06:00 +10°C° 0 mm 5 mps 756 mmHg 63%
07:00 +10°C° 0 mm 5 mps 756 mmHg 63%
08:00 +10°C° 0 mm 5 mps 757 mmHg 62%
09:00 +12°C° 0 mm 5 mps 757 mmHg 59%
10:00 +13°C° 0 mm 5 mps 756 mmHg 56%
11:00 +14°C° 0 mm 5 mps 756 mmHg 52%
12:00 +15°C° 0 mm 6 mps 756 mmHg 52%
13:00 +15°C° 0 mm 6 mps 756 mmHg 52%
14:00 +15°C° 0 mm 6 mps 756 mmHg 52%
15:00 +14°C° 0 mm 5 mps 756 mmHg 52%
16:00 +14°C° 0 mm 5 mps 756 mmHg 53%
17:00 +13°C° 0 mm 4 mps 756 mmHg 53%
18:00 +13°C° 0 mm 4 mps 756 mmHg 54%
19:00 +12°C° 0 mm 4 mps 756 mmHg 56%
20:00 +12°C° 0 mm 4 mps 756 mmHg 57%
21:00 +12°C° 0 mm 4 mps 756 mmHg 58%
22:00 +11°C° 0 mm 4 mps 756 mmHg 59%
23:00 +11°C° 0 mm 4 mps 756 mmHg 60%
Show more